Location: Unspecified
(0.0000°N, 0.0000°E)
Time: 23:58:50
(UTC+00:00)

Vanguard 1 - Visible Passes

Search period start: 18 July 2018 00:00
Search period end: 28 July 2018 00:00
Orbit: 650 x 3833 km, 34.2° (Epoch: 18 July)

Date Brightness Start Highest point End Pass type
(mag) Time Alt. Az. Time Alt. Az. Time Alt. Az.
18 Jul 12.6 05:25:51 10° NNW 05:32:56 35° NE 05:44:58 10° ESE visible
18 Jul 11.8 20:09:40 10° WSW 20:21:13 43° NW 20:27:30 11° NNE visible
19 Jul 12.4 20:32:32 10° W 20:41:56 28° NW 20:47:51 10° NNE visible
20 Jul 13.0 03:52:00 10° NNE 03:54:03 11° NE 03:56:22 10° ENE visible
20 Jul 11.6 18:24:32 10° SW 18:41:46 86° NW 18:50:39 10° NE visible
20 Jul 12.7 20:56:15 10° W 21:02:43 18° NW 21:07:25 10° N visible
21 Jul 12.6 04:10:17 10° N 04:14:56 19° NE 04:21:28 10° E visible
21 Jul 11.9 18:46:34 10° WSW 19:02:49 64° NW 19:11:21 10° NE visible
21 Jul 13.1 21:22:32 10° NW 21:23:42 10° NW 21:24:47 10° NW visible
22 Jul 12.3 04:30:00 10° NNW 04:35:40 31° NE 04:44:47 10° ESE visible
22 Jul 12.4 19:09:03 10° WSW 19:23:42 46° NW 19:31:48 10° NNE visible
23 Jul 11.6 04:50:11 10° NNW 04:56:22 48° NE 05:07:22 10° ESE visible
23 Jul 12.8 19:32:05 10° W 19:44:30 32° NW 19:51:58 10° NNE visible
24 Jul 11.0 05:10:42 10° NW 05:17:11 73° NE 05:29:25 10° ESE visible
24 Jul 12.9 19:55:54 10° W 20:05:23 22° NW 20:11:47 10° N visible
25 Jul 12.3 03:15:04 11° N 03:18:03 16° NE 03:22:19 10° E visible
25 Jul 10.9 05:31:30 10° WNW 05:38:13 78° SW 05:51:05 10° SE visible
25 Jul 13.2 20:20:56 10° WNW 20:26:29 14° NW 20:30:49 10° NNW visible
26 Jul 11.8 03:35:50 18° N 03:38:47 27° NE 03:45:32 10° E visible
26 Jul 12.9 18:07:48 10° WSW 18:25:34 49° NW 18:35:36 10° NNE visible
27 Jul 11.0 03:56:36 26° NNW 03:59:28 46° NE 04:07:54 10° ESE visible
27 Jul 13.0 18:30:57 10° WSW 18:46:32 36° NW 18:55:52 10° NNE visible
